DW5872 Weather Reports


Display with metric or nautical units.
time (UTC)temp
F
wind
direction
speed
MPH
gust
MPH
rain 1hr
in
rain 24hr
in
rain mn
in
humidity
%
barometer
mb
20260510203055 76 302 0.0 7.0 0.00 0.13 0.00 51 1012.1
20260510201608 77 307 1.0 6.0 0.00 0.13 0.00 51 1012.1
20260510200052 77 308 1.0 5.0 0.00 0.13 0.00 51 1012.0
20260510194552 78 305 2.0 9.0 0.00 0.13 0.00 51 1012.2
20260510193051 78 311 2.0 6.0 0.00 0.13 0.00 52 1012.2
20260510191607 77 0 2.0 5.0 0.00 0.13 0.00 57 1012.4
20260510190103 77 0 0.0 4.0 0.00 0.13 0.00 57 1012.3
20260510184559 76 0 0.0 2.0 0.00 0.16 0.00 62 1012.4
20260510183100 74 306 2.0 5.0 0.00 0.16 0.00 61 1012.4
20260510181559 74 0 0.0 5.0 0.00 0.16 0.00 62 1012.4
20260510180058 74 308 1.0 5.0 0.00 0.16 0.00 62 1012.5
20260510174558 73 336 0.0 2.0 0.00 0.16 0.00 67 1012.5
20260510173102 72 336 2.0 4.0 0.00 0.16 0.00 65 1012.5
20260510171558 71 0 1.0 5.0 0.00 0.16 0.00 67 1012.3
20260510170135 70 0 0.0 2.0 0.00 0.16 0.00 71 1012.6
20260510164554 68 0 1.0 3.0 0.00 0.16 0.00 72 1012.8
20260510163055 68 0 0.0 3.0 0.00 0.16 0.00 78 1013.1
20260510161605 66 343 1.0 3.0 0.00 0.16 0.00 78 1013.0
20260510160133 64 0 1.0 3.0 0.00 0.16 0.00 81 1013.4
20260510154600 63 343 0.0 3.0 0.00 0.16 0.00 85 1013.4
20260510153055 61 0 0.0 3.0 0.00 0.16 0.00 86 1013.5
20260510151553 60 343 0.0 2.0 0.00 0.16 0.00 90 1013.5
20260510150054 59 343 1.0 4.0 0.00 0.16 0.00 89 1013.4
20260510144556 59 0 0.0 2.0 0.00 0.16 0.00 92 1013.5
20260510143056 58 0 0.0 1.0 0.00 0.16 0.00 93 1013.5
20260510141554 57 0 0.0 2.0 0.00 0.16 0.00 93 1013.5
20260510134604 56 0 0.0 3.0 0.00 0.16 0.00 93 1013.3
20260510133056 56 0 0.0 2.0 0.00 0.16 0.00 93 1013.5
20260510131555 56 0 0.0 1.0 0.00 0.16 0.00 93 1013.2
20260510130054 56 343 0.0 1.0 0.00 0.16 0.00 94 1012.9
20260510124553 55 0 0.0 0.0 0.00 0.16 0.00 94 1012.8
20260510123055 55 0 0.0 1.0 0.00 0.16 0.00 94 1012.6
20260510121556 55 0 0.0 1.0 0.00 0.16 0.00 94 1012.6
20260510120054 55 0 0.0 1.0 0.00 0.16 0.00 94 1012.5
20260510114552 54 0 0.0 0.0 0.00 0.16 0.00 94 1012.4
20260510113055 54 0 0.0 0.0 0.00 0.16 0.00 94 1012.2
20260510111608 54 0 0.0 1.0 0.00 0.16 0.00 94 1012.3
20260510110052 54 0 0.0 0.0 0.00 0.16 0.00 94 1012.1
20260510104553 53 0 0.0 1.0 0.00 0.16 0.00 94 1011.7
20260510103055 53 0 0.0 2.0 0.00 0.16 0.00 94 1011.7
20260510101554 53 0 0.0 1.0 0.00 0.16 0.00 93 1011.8
20260510100057 53 0 0.0 1.0 0.00 0.16 0.00 93 1011.7
20260510094553 52 0 0.0 3.0 0.00 0.16 0.00 93 1011.7
20260510093110 52 0 0.0 3.0 0.00 0.16 0.00 93 1012.0
20260510091552 52 0 0.0 3.0 0.00 0.16 0.00 93 1011.9
20260510090109 52 0 0.0 4.0 0.00 0.16 0.00 93 1012.0
20260510084554 52 0 0.0 2.0 0.00 0.16 0.00 93 1011.5
20260510083108 52 0 0.0 2.0 0.00 0.16 0.00 93 1011.4
20260510081608 52 0 0.0 2.0 0.00 0.16 0.00 93 1011.3
20260510080056 52 344 0.0 2.0 0.00 0.16 0.00 93 1011.2
20260510074615 52 0 0.0 1.0 0.00 0.16 0.00 93 1011.2
20260510073056 51 0 0.0 2.0 0.00 0.16 0.00 93 1011.1
20260510071554 51 0 0.0 1.0 0.00 0.16 0.00 93 1011.0
20260510070056 51 0 0.0 0.0 0.00 0.16 0.00 93 1010.9
20260510064603 50 0 0.0 0.0 0.00 0.16 0.00 92 1010.6
20260510063057 50 0 0.0 0.0 0.00 0.16 0.00 92 1010.6
20260510061556 50 0 0.0 0.0 0.00 0.16 0.00 92 1010.8
20260510060055 50 0 0.0 0.0 0.00 0.16 0.00 92 1010.7
20260510054557 50 0 0.0 0.0 0.00 0.16 0.00 92 1011.0
20260510053053 50 0 0.0 0.0 0.00 0.16 0.00 92 1011.1
20260510051559 50 0 0.0 0.0 0.00 0.16 0.00 92 1011.0
20260510050054 50 0 0.0 0.0 0.00 0.16 0.00 92 1011.0
20260510044637 49 0 0.0 0.0 0.00 0.16 0.00 92 1011.1
20260510043054 49 0 0.0 0.0 0.00 0.16 0.00 91 1011.2
20260510041554 49 0 0.0 0.0 0.00 0.16 0.00 91 1011.2
20260510040055 49 0 0.0 0.0 0.00 0.16 0.00 91 1011.1
20260510034554 50 0 0.0 0.0 0.00 0.16 0.16 91 1010.7
20260510033056 50 0 0.0 0.0 0.00 0.16 0.16 91 1010.4
20260510031557 50 0 0.0 0.0 0.00 0.16 0.16 90 1010.5
20260510030051 50 0 0.0 0.0 0.00 0.16 0.16 90 1010.5
20260510024555 51 0 0.0 0.0 0.00 0.16 0.16 90 1010.5
20260510023054 51 0 0.0 0.0 0.00 0.16 0.16 90 1010.5
20260510021554 51 0 0.0 0.0 0.00 0.16 0.16 90 1010.7
20260510020054 52 0 0.0 0.0 0.00 0.16 0.16 90 1010.7
20260510014554 52 0 0.0 0.0 0.00 0.16 0.16 89 1010.7
20260510013054 52 0 0.0 0.0 0.00 0.16 0.16 89 1010.7
20260510011558 53 0 0.0 0.0 0.00 0.16 0.16 89 1010.6
20260510010124 53 0 0.0 0.0 0.00 0.16 0.16 88 1010.4
20260510004553 54 0 0.0 0.0 0.00 0.16 0.16 88 1010.4
20260510003054 54 0 0.0 0.0 0.00 0.16 0.16 87 1010.3
20260510001556 55 0 0.0 0.0 0.00 0.16 0.16 86 1010.2
20260510000058 56 0 0.0 0.0 0.00 0.16 0.16 86 1010.1
20260509234618 57 0 0.0 0.0 0.00 0.16 0.16 86 1010.2
20260509233056 57 0 0.0 0.0 0.00 0.16 0.16 86 1010.1
20260509231553 58 0 0.0 1.0 0.00 0.16 0.16 86 1009.9
20260509230100 58 0 0.0 1.0 0.02 0.16 0.16 86 1010.0
20260509224555 58 0 0.0 2.0 0.09 0.16 0.16 86 1010.1
20260509223055 58 0 0.0 2.0 0.13 0.16 0.16 87 1010.2
20260509221554 57 0 0.0 2.0 0.13 0.16 0.16 86 1010.3
20260509220107 57 0 0.0 2.0 0.10 0.13 0.13 84 1010.5
20260509214603 59 0 0.0 1.0 0.04 0.07 0.07 80 1011.0
20260509213057 60 0 0.0 3.0 0.00 0.03 0.03 76 1011.0
20260509211557 60 344 0.0 2.0 0.00 0.03 0.03 74 1010.3
20260509210054 60 0 1.0 3.0 0.00 0.03 0.03 73 1010.3
20260509204600 60 0 0.0 4.0 0.00 0.03 0.03 75 1010.6